SCP
0 0 0 0 0 0 0 0 0 0 0 0 0 0 0 0 0 0 0 0 0 0 0 0 0 0 0 0 0 0 0 0 0 0 0 0 0 0 0 0 0 0 0 0 0
0 0 0 0 0 0 0 0 -0 0 0 0 0 0 0 0 0 0 0 0 0 0 0 0 0 0 0 0 0 0 0 0 0 0 0 0 0 0 0 0 0 0 0 0 0
0 0 0 0 0 0 0 0 -0 0 0 0 0 0 0 0 0 0 0 0 0 0 0 0 0 0 0 0 0 0 0 0 0 0 0 0 0 0 0 0 0 0 0 0 0
0 0 0 0 0 0 0 0 0 0 0 0 0 0 0 0 0 0 0 0 0 0 0 0 0 0 0 0 0 0 0 0 0 0 0 0 0 0 0 0 0 0 0 0 0
0 0 0 0 0 0 0 0 0 0 0 0 0 0 0 0 0 0 0 0 0 0 0 0 0 0 0 0 0 0 0 0 0 0 0 0 0 0 0 0 0 0 0 0 0
0 0 0 0 0 0 0 0 0 0 0 0 0 0 0 0 0 0 0 0 0 0 0 0 0 0 0 0 0 0 0 0 0 0 0 0 0 0 0 0 0 0 0 0 0
0 0 0 0 0 0 0 0 0 0 0 0 0 0 0 0 0 0 0 0 0 0 0 0 0 0 0 0 0 0 0 0 0 0 0 0 0 0 0 0 0 0 0 0 0
0 0 0 0 0 0 0 0 0 0 0 0 0 0 0 0 0 0 0 0 0 0 0 0 0 0 0 0 0 0 0 0 0 0 0 0 0 0 0 0 0 0 0 0 0
0 0 0 0 0 0 0 0 0 0 0 0 0 0 0 0 0 0 0 0 0 0 0 0 0 0 0 0 0 0 0 0 0 0 0 0 0 0 0 0 0 0 0 0 0
0 0 0 0 0 0 0 0 0 0 0 0 0 0 0 0 0 0 0 0 0 0 0 0 0 0 0 0 0 0 0 0 0 0 0 0 0 0 0 0 0 0 0 0 0
0 0 0 0 0 0 0 0 0 0 0 0 0 0 0 0 0 0 0 0 0 0 0 0 0 0 0 0 0 0 0 0 0 0 0 0 0 0 0 0 0 0 0 0 0
0 0 0 0 0 0 0 0 0 0 0 0 0 0 0 0 0 0 0 0 0 0 0 0 0 0 0 0 0 0 0 0 0 0 0 0 0 0 0 0 0 0 0 0 0
0 0 0 0 0 0 0 0 0 0 0 0 0 0 0 0 0 0 0 0 0 0 0 0 0 0 0 0 0 0 0 0 0 0 0 0 0 0 0 0 0 0 0 0 0
0 0 0 0 0 0 0 0 0 0 0 0 0 0 0 0 0 0 0 0 0 0 0 0 0 0 0 0 0 0 0 0 0 0 0 0 0 0 0 0 0 0 0 0 0
0 0 0 0 0 0 0 0 0 0 0 0 0 0 0 0 0 0 0 0 0 0 0 0 0 0 0 0 0 0 0 0 0 0 0 0 0 0 0 0 0 0 0 0 0
0 0 0 0 0 0 0 0 0 0 0 0 0 0 0 0 0 0 0 0 0 0 0 0 0 0 0 0 0 0 0 0 0 0 0 0 0 0 0 0 0 0 0 0 0
-0 0 0 0 0 0 0 0 0 0 0 0 0 0 0 0 0 0 0 0 0 0 0 0 0 0 0 0 0 0 0 0 0 0 0 0 0 0 0 0 0 0 0 0 0
-0 0 0 0 0 0 0 0 0 0 0 0 0 0 0 0 0 0 0 0 0 0 0 0 0 0 0 0 0 0 0 0 0 0 0 0 0 0 0 0 0 0 0 0 0
0 0 0 0 0 0 0 0 0 0 0 0 0 0 0 0 0 0 0 0 0 0 0 0 0 0 0 0 0 0 0 0 0 0 0 0 0 0 0 0 0 0 0 0 0
0 0 -0 0 0 0 0 0 0 0 0 0 0 0 0 0 0 0 0 0 0 0 0 0 0 0 0 0 0 0 0 0 0 0 0 0 0 0 0 0 0 0 0 0 0
0 0 0 0 0 0 0 0 0 0 0 0 0 0 0 0 0 0 0 0 0 0 0 0 0 0 0 0 0 0 0 0 0 0 0 0 0 0 0 0 0 0 0 0 0
0 0 0 0 0 0 -0 0 0 0 0 0 0 0 0 0 0 0 0 0 0 0 0 0 0 0 0 0 0 0 0 0 0 0 0 0 0 0 0 0 0 0 0 0 0
0 0 0 0 0 0 0 0 0 0 0 0 0 0 0 0 0 0 0 0 0 0 0 0 0 0 0 0 0 0 0 0 0 0 0 0 0 0 0 0 -0 0 0 0 0
0 0 0 0 0 0 0 0 0 0 0 0 0 0 0 0 0 0 0 0 0 0 0 0 0 0 0 0 0 0 0 0 0 0 0 0 0 0 0 0 0 0 0 0 0
0 0 0 0 0 0 0 0 0 0 0 0 0 0 0 0 0 0 0 0 0 0 0 0 0 0 0 0 0 0 0 0 0 0 0 0 0 0 0 0 0 0 0 0 0
0 0 0 0 0 0 0 0 0 0 0 0 0 0 0 0 0 0 0 0 0 0 0 0 0 0 0 0 0 0 0 0 0 0 0 0 0 0 0 0 0 0 0 0 0
0 0 0 0 0 0 0 0 0 0 0 0 0 0 0 0 0 0 0 0 0 0 0 0 0 0 0 0 0 0 0 0 0 0 0 0 0 0 0 0 0 0 0 0 0
Wind_Speed_500mb
7 11 3 14 28 7 9 19 20 7 8 13 30 26 28 39 32 23 18 17 15 23 17 15 26 36 33 15 10 7 6 8 16 16 10 17 7 9 11 20 19 15 9 23 33
6 3 7 6 25 9 4 12 30 13 5 7 23 27 29 37 30 21 14 13 17 21 15 19 29 35 14 8 8 3 5 12 8 4 4 9 5 8 5 15 24 21 29 34 30
9 10 9 9 31 19 9 7 22 7 8 13 26 25 31 34 23 14 17 18 21 26 16 24 30 24 11 10 5 8 5 18 7 2 8 3 12 11 4 15 14 7 10 23 29
8 14 10 10 19 20 14 8 24 6 4 22 27 29 32 35 17 18 27 23 28 29 21 33 19 10 9 8 5 7 14 20 13 16 12 7 9 15 26 9 7 5 9 17 23
12 14 11 9 5 24 4 21 29 16 18 22 26 30 35 15 9 23 35 29 35 29 25 29 15 12 14 15 9 9 10 10 11 19 35 27 25 16 19 13 11 11 10 12 13
11 15 11 7 6 19 4 29 22 19 18 20 31 32 23 14 10 20 37 35 40 35 34 24 9 16 22 12 6 9 16 8 4 16 11 13 8 3 12 8 12 12 12 9 8
11 15 12 7 5 6 13 17 26 28 26 27 26 29 19 16 9 20 41 38 39 38 37 20 13 4 19 19 16 13 8 3 3 2 6 19 5 6 6 2 13 16 14 10 10
11 13 11 7 8 2 12 9 29 27 30 28 23 23 9 13 12 21 42 37 37 39 30 17 2 14 10 28 10 8 2 16 5 6 7 13 14 6 0 6 10 14 14 14 14
11 12 10 8 9 9 10 22 34 27 29 30 19 14 9 18 13 20 33 36 32 32 25 14 12 10 17 14 10 3 8 18 11 9 4 5 13 9 5 9 10 9 12 13 15
13 12 11 7 8 10 11 27 26 28 29 25 10 6 11 16 19 20 29 36 24 32 25 9 6 9 14 15 9 17 12 13 20 22 17 19 17 12 10 15 15 8 12 12 13
8 9 10 9 12 14 12 19 31 14 17 4 13 6 13 23 26 21 33 33 29 22 15 11 14 19 21 18 5 11 10 15 11 6 14 29 25 18 17 17 18 18 14 14 13
8 8 7 10 12 15 18 9 15 9 12 12 15 10 16 24 13 26 40 16 23 22 18 10 27 18 17 17 9 14 6 11 12 5 3 9 24 18 23 19 22 22 21 20 17
11 7 7 9 12 17 22 17 20 18 7 8 7 7 17 16 7 31 42 21 26 23 30 24 2 25 18 18 18 12 19 18 8 17 2 4 17 16 18 21 23 24 25 23 24
11 7 9 8 9 12 15 9 12 12 6 11 11 12 16 13 4 31 41 15 10 30 24 20 8 23 18 26 27 20 15 22 15 20 7 15 8 16 29 27 34 36 38 33 31
5 9 10 8 7 7 14 16 10 3 10 18 12 17 23 14 21 26 29 8 22 19 16 17 24 25 24 25 23 13 12 26 29 19 9 11 10 9 15 28 35 48 47 40 35
3 5 7 7 4 4 17 23 24 4 6 7 3 15 20 7 10 25 20 7 13 9 11 10 2 14 18 16 27 12 11 11 6 12 14 27 16 15 15 22 37 51 51 46 42
4 5 3 8 6 3 20 19 7 6 2 8 6 12 27 11 7 21 31 17 20 21 28 15 8 4 7 16 10 22 20 6 8 10 12 2 21 26 12 17 19 50 58 53 44
7 7 7 7 6 9 19 4 6 4 9 7 6 22 14 18 11 19 28 29 23 13 23 29 20 21 16 21 17 38 34 11 10 9 5 6 15 10 2 1 8 31 51 48 44
4 5 7 3 8 11 11 10 6 5 9 18 9 12 11 14 10 24 36 37 27 19 19 29 30 4 12 9 26 22 25 20 3 1 5 10 8 12 8 5 17 35 45 46 43
6 6 7 8 13 16 4 1 3 4 12 17 17 13 16 33 16 28 33 25 26 24 7 10 15 7 7 5 3 13 25 16 11 8 13 12 12 18 13 26 22 34 48 47 41
8 6 8 16 21 5 4 6 6 9 9 9 11 11 10 19 28 24 18 11 33 19 15 7 7 5 9 26 31 14 14 15 8 18 6 7 8 2 4 21 36 42 46 47 43
7 4 12 26 5 1 7 7 4 4 6 4 3 10 12 19 25 28 29 17 24 36 24 10 4 10 25 2 11 35 40 39 20 12 12 17 18 8 4 7 31 42 46 46 46
5 7 12 21 5 6 4 6 5 8 2 7 5 6 12 12 10 30 18 17 16 30 25 18 10 9 4 9 7 16 24 32 28 4 26 17 12 5 4 12 27 41 47 46 45
7 3 6 11 4 9 9 6 6 10 8 9 7 5 11 16 23 5 19 10 20 26 30 21 17 29 32 13 15 21 28 35 37 23 28 45 37 14 13 15 28 40 48 50 52
12 6 9 7 10 10 6 6 10 9 12 18 11 12 4 7 10 17 12 4 5 10 13 11 27 36 24 14 11 16 33 40 47 61 35 42 48 43 25 30 43 45 53 56 56
11 12 9 9 13 17 15 14 16 8 13 13 14 22 17 9 3 5 3 12 14 17 14 7 22 11 25 26 7 9 22 42 57 53 59 47 49 4 6 22 40 53 59 63 64
30 15 7 18 16 13 10 13 17 15 17 14 20 12 17 20 24 22 17 30 21 14 30 16 15 15 35 22 10 17 54 42 41 46 48 51 55 14 16 32 52 59 70 84 85
Wind_Direction_500mb
146 291 303 259 225 11 115 149 183 198 168 193 184 184 184 176 173 162 151 159 146 156 141 141 153 161 165 151 116 112 102 141 170 167 296 354 339 44 43 86 60 31 66 129 154
266 325 333 357 227 301 127 70 159 181 223 213 166 169 180 173 171 162 157 147 147 149 133 143 137 152 132 110 89 94 135 154 190 77 307 352 45 3 111 94 66 73 102 134 147
17 20 341 358 214 257 64 119 150 174 254 168 150 164 164 164 150 177 153 147 151 138 133 141 132 134 78 98 65 360 158 152 180 48 37 18 62 35 106 60 38 7 66 141 156
10 14 29 26 186 234 82 132 140 136 121 135 144 154 160 149 161 175 175 155 151 140 134 148 131 110 105 108 98 111 99 151 157 35 76 32 72 73 57 49 13 70 129 149 161
26 27 44 42 136 219 70 119 121 112 99 139 161 158 151 135 112 170 174 163 157 146 139 148 138 122 134 126 103 112 121 86 134 115 86 98 68 85 61 55 76 91 115 132 153
38 39 56 55 81 240 193 132 147 137 136 150 154 157 151 141 109 167 169 165 164 154 143 137 130 117 110 147 84 105 111 57 65 138 136 101 60 103 41 64 90 100 91 97 127
45 32 45 58 44 274 221 97 156 139 134 130 153 168 139 135 107 148 168 165 167 166 156 138 131 29 121 118 112 133 113 172 100 58 121 112 112 62 337 63 94 85 81 87 92
37 27 29 63 61 87 238 96 155 150 141 136 138 149 135 138 128 151 164 167 171 175 174 171 123 115 105 120 74 70 60 191 157 209 132 188 183 142 16 186 110 99 86 80 85
26 26 36 72 79 75 208 117 152 149 146 139 127 118 129 170 140 155 164 167 163 174 164 164 142 109 129 133 115 117 158 208 205 222 116 178 228 160 146 181 137 112 100 91 93
35 38 61 80 73 95 191 105 141 138 132 139 130 120 193 170 162 156 162 165 141 156 151 132 131 156 164 185 200 184 187 200 204 193 207 198 200 172 169 188 158 155 130 112 108
50 47 64 65 97 115 140 111 125 126 138 117 156 107 144 154 159 162 161 156 145 154 168 165 200 199 190 208 331 181 191 187 200 196 218 225 227 203 187 191 179 169 169 147 138
59 64 85 62 129 115 148 90 96 117 111 109 171 97 151 148 135 165 163 153 161 162 148 160 223 205 201 202 195 190 202 195 175 127 204 203 233 194 196 208 203 184 193 172 160
79 80 91 56 130 122 154 125 113 118 127 177 153 167 156 159 162 169 169 149 170 166 184 199 150 189 180 200 205 211 221 194 233 194 2 139 247 214 216 215 204 200 203 193 181
91 113 88 67 107 109 146 196 122 66 123 175 196 197 170 146 187 176 169 161 164 189 183 219 170 171 190 214 209 234 212 192 149 171 221 201 267 216 200 204 209 203 203 197 191
86 102 89 105 87 116 154 135 210 25 167 142 152 165 168 172 137 189 174 173 170 162 189 177 182 181 202 210 199 213 173 195 208 227 270 195 248 218 191 215 213 208 203 198 193
115 85 113 111 48 93 157 161 134 165 218 151 77 173 156 168 169 153 177 177 144 141 218 177 139 198 213 196 202 147 115 113 119 238 252 226 210 233 193 213 216 204 203 193 193
100 94 88 119 111 308 170 151 118 214 110 180 176 170 178 157 149 185 187 181 170 179 198 189 188 212 186 177 172 190 194 197 211 205 244 235 209 244 202 216 219 197 195 191 188
106 111 103 95 59 29 164 73 177 186 185 118 172 158 184 157 192 182 190 201 226 216 180 196 211 185 176 208 186 200 208 206 230 215 224 147 230 243 13 111 237 189 190 182 184
105 115 112 68 79 80 124 200 184 208 162 148 115 161 167 179 182 183 207 213 211 204 203 203 212 183 186 158 183 189 216 238 253 45 272 226 251 240 176 174 166 168 178 181 183
133 142 117 122 119 115 110 229 248 321 326 159 179 200 182 182 175 194 188 214 220 211 246 216 210 200 155 157 187 225 171 191 221 244 244 238 254 249 221 209 188 185 186 182 182
157 142 149 145 136 90 209 243 271 291 320 214 175 178 221 184 195 198 210 211 210 191 191 200 258 138 156 206 194 176 194 216 241 230 254 293 237 258 278 192 193 194 191 185 182
158 141 165 162 122 79 192 195 194 312 316 298 238 161 196 207 196 204 211 219 202 196 198 192 213 186 207 38 291 228 216 208 219 210 248 267 255 155 185 198 195 190 186 185 188
187 149 165 171 202 214 283 273 259 192 334 355 287 191 184 201 214 223 212 221 194 193 197 172 207 205 220 231 199 225 211 220 226 314 232 228 245 22 239 207 189 184 185 183 183
177 151 154 182 170 163 169 230 252 220 197 179 276 299 190 193 213 244 235 224 208 212 219 182 221 221 222 231 176 210 213 217 210 222 227 235 252 226 221 200 183 187 186 184 186
196 209 172 178 216 200 184 168 195 227 217 193 199 245 269 232 206 215 228 204 228 218 236 206 230 231 248 264 201 226 207 205 211 227 225 248 237 243 216 209 201 188 185 185 189
203 171 164 148 135 174 198 209 217 227 165 229 233 201 191 215 288 134 283 210 210 181 183 236 248 217 244 218 209 240 230 215 222 224 239 244 256 333 294 182 183 190 189 194 194
214 211 179 167 168 174 213 205 212 193 230 230 219 243 221 237 218 227 265 282 275 275 195 202 224 214 247 222 187 264 232 221 230 228 233 234 244 178 204 207 202 192 194 198 198
Wind_Speed_850mb
7 11 3 14 28 7 9 19 20 7 8 13 30 26 28 39 32 23 18 17 15 23 17 15 26 36 33 15 10 7 6 8 16 16 10 17 7 9 11 20 19 15 9 23 33
6 3 7 6 25 9 4 12 30 13 5 7 23 27 29 37 30 21 14 13 17 21 15 19 29 35 14 8 8 3 5 12 8 4 4 9 5 8 5 15 24 21 29 34 30
9 10 9 9 31 19 9 7 22 7 8 13 26 25 31 34 23 14 17 18 21 26 16 24 30 24 11 10 5 8 5 18 7 2 8 3 12 11 4 15 14 7 10 23 29
8 14 10 10 19 20 14 8 24 6 4 22 27 29 32 35 17 18 27 23 28 29 21 33 19 10 9 8 5 7 14 20 13 16 12 7 9 15 26 9 7 5 9 17 23
12 14 11 9 5 24 4 21 29 16 18 22 26 30 35 15 9 23 35 29 35 29 25 29 15 12 14 15 9 9 10 10 11 19 35 27 25 16 19 13 11 11 10 12 13
11 15 11 7 6 19 4 29 22 19 18 20 31 32 23 14 10 20 37 35 40 35 34 24 9 16 22 12 6 9 16 8 4 16 11 13 8 3 12 8 12 12 12 9 8
11 15 12 7 5 6 13 17 26 28 26 27 26 29 19 16 9 20 41 38 39 38 37 20 13 4 19 19 16 13 8 3 3 2 6 19 5 6 6 2 13 16 14 10 10
11 13 11 7 8 2 12 9 29 27 30 28 23 23 9 13 12 21 42 37 37 39 30 17 2 14 10 28 10 8 2 16 5 6 7 13 14 6 0 6 10 14 14 14 14
11 12 10 8 9 9 10 22 34 27 29 30 19 14 9 18 13 20 33 36 32 32 25 14 12 10 17 14 10 3 8 18 11 9 4 5 13 9 5 9 10 9 12 13 15
13 12 11 7 8 10 11 27 26 28 29 25 10 6 11 16 19 20 29 36 24 32 25 9 6 9 14 15 9 17 12 13 20 22 17 19 17 12 10 15 15 8 12 12 13
8 9 10 9 12 14 12 19 31 14 17 4 13 6 13 23 26 21 33 33 29 22 15 11 14 19 21 18 5 11 10 15 11 6 14 29 25 18 17 17 18 18 14 14 13
8 8 7 10 12 15 18 9 15 9 12 12 15 10 16 24 13 26 40 16 23 22 18 10 27 18 17 17 9 14 6 11 12 5 3 9 24 18 23 19 22 22 21 20 17
11 7 7 9 12 17 22 17 20 18 7 8 7 7 17 16 7 31 42 21 26 23 30 24 2 25 18 18 18 12 19 18 8 17 2 4 17 16 18 21 23 24 25 23 24
11 7 9 8 9 12 15 9 12 12 6 11 11 12 16 13 4 31 41 15 10 30 24 20 8 23 18 26 27 20 15 22 15 20 7 15 8 16 29 27 34 36 38 33 31
5 9 10 8 7 7 14 16 10 3 10 18 12 17 23 14 21 26 29 8 22 19 16 17 24 25 24 25 23 13 12 26 29 19 9 11 10 9 15 28 35 48 47 40 35
3 5 7 7 4 4 17 23 24 4 6 7 3 15 20 7 10 25 20 7 13 9 11 10 2 14 18 16 27 12 11 11 6 12 14 27 16 15 15 22 37 51 51 46 42
4 5 3 8 6 3 20 19 7 6 2 8 6 12 27 11 7 21 31 17 20 21 28 15 8 4 7 16 10 22 20 6 8 10 12 2 21 26 12 17 19 50 58 53 44
7 7 7 7 6 9 19 4 6 4 9 7 6 22 14 18 11 19 28 29 23 13 23 29 20 21 16 21 17 38 34 11 10 9 5 6 15 10 2 1 8 31 51 48 44
4 5 7 3 8 11 11 10 6 5 9 18 9 12 11 14 10 24 36 37 27 19 19 29 30 4 12 9 26 22 25 20 3 1 5 10 8 12 8 5 17 35 45 46 43
6 6 7 8 13 16 4 1 3 4 12 17 17 13 16 33 16 28 33 25 26 24 7 10 15 7 7 5 3 13 25 16 11 8 13 12 12 18 13 26 22 34 48 47 41
8 6 8 16 21 5 4 6 6 9 9 9 11 11 10 19 28 24 18 11 33 19 15 7 7 5 9 26 31 14 14 15 8 18 6 7 8 2 4 21 36 42 46 47 43
7 4 12 26 5 1 7 7 4 4 6 4 3 10 12 19 25 28 29 17 24 36 24 10 4 10 25 2 11 35 40 39 20 12 12 17 18 8 4 7 31 42 46 46 46
5 7 12 21 5 6 4 6 5 8 2 7 5 6 12 12 10 30 18 17 16 30 25 18 10 9 4 9 7 16 24 32 28 4 26 17 12 5 4 12 27 41 47 46 45
7 3 6 11 4 9 9 6 6 10 8 9 7 5 11 16 23 5 19 10 20 26 30 21 17 29 32 13 15 21 28 35 37 23 28 45 37 14 13 15 28 40 48 50 52
12 6 9 7 10 10 6 6 10 9 12 18 11 12 4 7 10 17 12 4 5 10 13 11 27 36 24 14 11 16 33 40 47 61 35 42 48 43 25 30 43 45 53 56 56
11 12 9 9 13 17 15 14 16 8 13 13 14 22 17 9 3 5 3 12 14 17 14 7 22 11 25 26 7 9 22 42 57 53 59 47 49 4 6 22 40 53 59 63 64
30 15 7 18 16 13 10 13 17 15 17 14 20 12 17 20 24 22 17 30 21 14 30 16 15 15 35 22 10 17 54 42 41 46 48 51 55 14 16 32 52 59 70 84 85
Wind_Direction_850mb
146 291 303 259 225 11 115 149 183 198 168 193 184 184 184 176 173 162 151 159 146 156 141 141 153 161 165 151 116 112 102 141 170 167 296 354 339 44 43 86 60 31 66 129 154
266 325 333 357 227 301 127 70 159 181 223 213 166 169 180 173 171 162 157 147 147 149 133 143 137 152 132 110 89 94 135 154 190 77 307 352 45 3 111 94 66 73 102 134 147
17 20 341 358 214 257 64 119 150 174 254 168 150 164 164 164 150 177 153 147 151 138 133 141 132 134 78 98 65 360 158 152 180 48 37 18 62 35 106 60 38 7 66 141 156
10 14 29 26 186 234 82 132 140 136 121 135 144 154 160 149 161 175 175 155 151 140 134 148 131 110 105 108 98 111 99 151 157 35 76 32 72 73 57 49 13 70 129 149 161
26 27 44 42 136 219 70 119 121 112 99 139 161 158 151 135 112 170 174 163 157 146 139 148 138 122 134 126 103 112 121 86 134 115 86 98 68 85 61 55 76 91 115 132 153
38 39 56 55 81 240 193 132 147 137 136 150 154 157 151 141 109 167 169 165 164 154 143 137 130 117 110 147 84 105 111 57 65 138 136 101 60 103 41 64 90 100 91 97 127
45 32 45 58 44 274 221 97 156 139 134 130 153 168 139 135 107 148 168 165 167 166 156 138 131 29 121 118 112 133 113 172 100 58 121 112 112 62 337 63 94 85 81 87 92
37 27 29 63 61 87 238 96 155 150 141 136 138 149 135 138 128 151 164 167 171 175 174 171 123 115 105 120 74 70 60 191 157 209 132 188 183 142 16 186 110 99 86 80 85
26 26 36 72 79 75 208 117 152 149 146 139 127 118 129 170 140 155 164 167 163 174 164 164 142 109 129 133 115 117 158 208 205 222 116 178 228 160 146 181 137 112 100 91 93
35 38 61 80 73 95 191 105 141 138 132 139 130 120 193 170 162 156 162 165 141 156 151 132 131 156 164 185 200 184 187 200 204 193 207 198 200 172 169 188 158 155 130 112 108
50 47 64 65 97 115 140 111 125 126 138 117 156 107 144 154 159 162 161 156 145 154 168 165 200 199 190 208 331 181 191 187 200 196 218 225 227 203 187 191 179 169 169 147 138
59 64 85 62 129 115 148 90 96 117 111 109 171 97 151 148 135 165 163 153 161 162 148 160 223 205 201 202 195 190 202 195 175 127 204 203 233 194 196 208 203 184 193 172 160
79 80 91 56 130 122 154 125 113 118 127 177 153 167 156 159 162 169 169 149 170 166 184 199 150 189 180 200 205 211 221 194 233 194 2 139 247 214 216 215 204 200 203 193 181
91 113 88 67 107 109 146 196 122 66 123 175 196 197 170 146 187 176 169 161 164 189 183 219 170 171 190 214 209 234 212 192 149 171 221 201 267 216 200 204 209 203 203 197 191
86 102 89 105 87 116 154 135 210 25 167 142 152 165 168 172 137 189 174 173 170 162 189 177 182 181 202 210 199 213 173 195 208 227 270 195 248 218 191 215 213 208 203 198 193
115 85 113 111 48 93 157 161 134 165 218 151 77 173 156 168 169 153 177 177 144 141 218 177 139 198 213 196 202 147 115 113 119 238 252 226 210 233 193 213 216 204 203 193 193
100 94 88 119 111 308 170 151 118 214 110 180 176 170 178 157 149 185 187 181 170 179 198 189 188 212 186 177 172 190 194 197 211 205 244 235 209 244 202 216 219 197 195 191 188
106 111 103 95 59 29 164 73 177 186 185 118 172 158 184 157 192 182 190 201 226 216 180 196 211 185 176 208 186 200 208 206 230 215 224 147 230 243 13 111 237 189 190 182 184
105 115 112 68 79 80 124 200 184 208 162 148 115 161 167 179 182 183 207 213 211 204 203 203 212 183 186 158 183 189 216 238 253 45 272 226 251 240 176 174 166 168 178 181 183
133 142 117 122 119 115 110 229 248 321 326 159 179 200 182 182 175 194 188 214 220 211 246 216 210 200 155 157 187 225 171 191 221 244 244 238 254 249 221 209 188 185 186 182 182
157 142 149 145 136 90 209 243 271 291 320 214 175 178 221 184 195 198 210 211 210 191 191 200 258 138 156 206 194 176 194 216 241 230 254 293 237 258 278 192 193 194 191 185 182
158 141 165 162 122 79 192 195 194 312 316 298 238 161 196 207 196 204 211 219 202 196 198 192 213 186 207 38 291 228 216 208 219 210 248 267 255 155 185 198 195 190 186 185 188
187 149 165 171 202 214 283 273 259 192 334 355 287 191 184 201 214 223 212 221 194 193 197 172 207 205 220 231 199 225 211 220 226 314 232 228 245 22 239 207 189 184 185 183 183
177 151 154 182 170 163 169 230 252 220 197 179 276 299 190 193 213 244 235 224 208 212 219 182 221 221 222 231 176 210 213 217 210 222 227 235 252 226 221 200 183 187 186 184 186
196 209 172 178 216 200 184 168 195 227 217 193 199 245 269 232 206 215 228 204 228 218 236 206 230 231 248 264 201 226 207 205 211 227 225 248 237 243 216 209 201 188 185 185 189
203 171 164 148 135 174 198 209 217 227 165 229 233 201 191 215 288 134 283 210 210 181 183 236 248 217 244 218 209 240 230 215 222 224 239 244 256 333 294 182 183 190 189 194 194
214 211 179 167 168 174 213 205 212 193 230 230 219 243 221 237 218 227 265 282 275 275 195 202 224 214 247 222 187 264 232 221 230 228 233 234 244 178 204 207 202 192 194 198 198